Time,TemperatureF,DewpointF,PressureIn,WindDirection,WindDirectionDegrees,WindSpeedMPH,WindSpeedGustMPH,Humidity,HourlyPrecipIn,Conditions,Clouds,dailyrainin,SolarRadiationWatts/m^2,SoftwareType,DateUTC
2013-01-12 00:04:00,17.9,-5.1,29.94,NW,315,0.0,5.0,35,0.00,,SCT140,0.00,0.00,VWS V14.01,2013-01-12 07:04:00,
2013-01-12 00:09:00,17.7,-5.3,29.94,NW,315,0.0,1.0,35,0.00,,SCT140,0.00,0.00,VWS V14.01,2013-01-12 07:09:00,
2013-01-12 00:14:00,17.6,-5.4,29.94,NW,323,3.0,7.0,35,0.00,,SCT140,0.00,0.00,VWS V14.01,2013-01-12 07:14:00,
2013-01-12 00:19:00,17.5,-4.9,29.94,NW,313,3.0,5.0,36,0.00,,SCT140,0.00,0.00,VWS V14.01,2013-01-12 07:19:00,
2013-01-12 00:24:00,17.6,-4.8,29.94,NW,310,2.0,5.0,36,0.00,,SCT140,0.00,0.00,VWS V14.01,2013-01-12 07:24:00,
2013-01-12 00:29:00,17.6,-4.8,29.94,NW,309,1.0,4.0,36,0.00,,SCT140,0.00,0.00,VWS V14.01,2013-01-12 07:29:00,
2013-01-12 00:34:00,17.4,-5.0,29.94,NW,309,0.0,2.0,36,0.00,,SCT140,0.00,0.00,VWS V14.01,2013-01-12 07:34:00,
2013-01-12 00:39:00,17.2,-5.2,29.94,NW,309,0.0,2.0,36,0.00,,SCT140,0.00,0.00,VWS V14.01,2013-01-12 07:39:00,
2013-01-12 00:44:00,17.0,-4.8,29.94,NW,309,1.0,3.0,37,0.00,,SCT140,0.00,0.00,VWS V14.01,2013-01-12 07:44:00,
2013-01-12 00:50:00,16.9,-4.9,29.94,NW,308,0.0,4.0,37,0.00,,SCT140,0.00,0.00,VWS V14.01,2013-01-12 07:50:00,
2013-01-12 00:55:00,16.9,-4.3,29.94,NW,307,5.0,6.0,38,0.00,,SCT140,0.00,0.00,VWS V14.01,2013-01-12 07:55:00,
2013-01-12 01:00:00,17.0,-4.2,29.94,NW,307,1.0,4.0,38,0.00,,SCT140,0.00,0.00,VWS V14.01,2013-01-12 08:00:00,
2013-01-12 01:05:00,16.9,-4.3,29.94,NW,308,2.0,5.0,38,0.00,,SCT140,0.00,0.00,VWS V14.01,2013-01-12 08:05:00,
2013-01-12 01:10:00,16.9,-4.3,29.94,NW,306,6.0,8.0,38,0.00,,SCT140,0.00,0.00,VWS V14.01,2013-01-12 08:10:00,
2013-01-12 01:15:00,17.0,-4.2,29.94,NW,306,2.0,3.0,38,0.00,,SCT140,0.00,0.00,VWS V14.01,2013-01-12 08:15:00,
2013-01-12 01:20:00,17.1,-3.6,29.94,NW,304,7.0,9.0,39,0.00,,SCT140,0.00,0.00,VWS V14.01,2013-01-12 08:20:00,
2013-01-12 01:25:00,17.2,-3.5,29.94,NW,309,5.0,6.0,39,0.00,,SCT140,0.00,0.00,VWS V14.01,2013-01-12 08:25:00,
2013-01-12 01:30:00,17.3,-3.4,29.94,NW,315,4.0,7.0,39,0.00,,SCT140,0.00,0.00,VWS V14.01,2013-01-12 08:30:00,
2013-01-12 01:35:00,17.3,-3.4,29.93,NW,306,5.0,6.0,39,0.00,,SCT140,0.00,0.00,VWS V14.01,2013-01-12 08:35:00,
2013-01-12 01:40:00,17.2,-3.5,29.93,NW,319,2.0,7.0,39,0.00,,SCT140,0.00,0.00,VWS V14.01,2013-01-12 08:40:00,
2013-01-12 01:45:00,17.1,-3.6,29.93,NW,320,3.0,6.0,39,0.00,,SCT140,0.00,0.00,VWS V14.01,2013-01-12 08:45:00,
2013-01-12 01:50:00,16.9,-3.8,29.93,NW,317,0.0,4.0,39,0.00,,SCT140,0.00,0.00,VWS V14.01,2013-01-12 08:50:00,
2013-01-12 01:55:00,16.7,-3.9,29.93,NW,317,0.0,3.0,39,0.00,,SCT140,0.00,0.00,VWS V14.01,2013-01-12 08:55:00,
2013-01-12 02:00:00,16.4,-4.2,29.93,NW,317,0.0,5.0,39,0.00,,BKN200,0.00,0.00,VWS V14.01,2013-01-12 09:00:00,
2013-01-12 02:06:00,16.1,-4.5,29.93,NW,317,3.0,4.0,39,0.00,,BKN200,0.00,0.00,VWS V14.01,2013-01-12 09:06:00,
2013-01-12 02:11:00,15.9,-4.1,29.93,NW,317,1.0,4.0,40,0.00,,BKN200,0.00,0.00,VWS V14.01,2013-01-12 09:11:00,
2013-01-12 02:16:00,15.8,-4.2,29.93,NW,317,0.0,1.0,40,0.00,,BKN200,0.00,0.00,VWS V14.01,2013-01-12 09:16:00,
2013-01-12 02:21:00,15.7,-4.3,29.93,NW,317,0.0,2.0,40,0.00,,BKN200,0.00,0.00,VWS V14.01,2013-01-12 09:21:00,
2013-01-12 02:26:00,15.5,-4.0,29.94,NW,317,0.0,4.0,41,0.00,,BKN200,0.00,0.00,VWS V14.01,2013-01-12 09:26:00,
2013-01-12 02:31:00,15.3,-4.2,29.94,NW,317,0.0,3.0,41,0.00,,BKN200,0.00,0.00,VWS V14.01,2013-01-12 09:31:00,
2013-01-12 02:36:00,15.2,-3.8,29.94,NW,317,0.0,2.0,42,0.00,,BKN200,0.00,0.00,VWS V14.01,2013-01-12 09:36:00,
2013-01-12 02:41:00,15.1,-3.8,29.95,NW,317,0.0,2.0,42,0.00,,BKN200,0.00,0.00,VWS V14.01,2013-01-12 09:41:00,
2013-01-12 02:46:00,15.0,-3.9,29.95,NW,317,0.0,0.0,42,0.00,,BKN200,0.00,0.00,VWS V14.01,2013-01-12 09:46:00,
2013-01-12 02:51:00,15.0,-3.5,29.95,NW,317,0.0,0.0,43,0.00,,BKN200,0.00,0.00,VWS V14.01,2013-01-12 09:51:00,
2013-01-12 02:57:00,14.9,-4.0,29.94,NW,317,0.0,1.0,42,0.00,,BKN200,0.00,0.00,VWS V14.01,2013-01-12 09:57:00,
2013-01-12 03:02:00,14.7,-3.7,29.94,NW,317,0.0,3.0,43,0.00,,SCT130,0.00,0.00,VWS V14.01,2013-01-12 10:02:00,
2013-01-12 03:07:00,14.5,-3.4,29.94,NW,317,0.0,3.0,44,0.00,,SCT130,0.00,0.00,VWS V14.01,2013-01-12 10:07:00,
2013-01-12 03:12:00,14.4,-3.5,29.94,NW,317,0.0,2.0,44,0.00,,SCT130,0.00,0.00,VWS V14.01,2013-01-12 10:12:00,
2013-01-12 03:17:00,14.2,-3.7,29.94,NW,317,0.0,0.0,44,0.00,,SCT130,0.00,0.00,VWS V14.01,2013-01-12 10:17:00,
2013-01-12 03:22:00,14.0,-3.9,29.93,NW,317,0.0,2.0,44,0.00,,SCT130,0.00,0.00,VWS V14.01,2013-01-12 10:22:00,
2013-01-12 03:27:00,13.9,-4.0,29.93,NW,317,2.0,4.0,44,0.00,,SCT130,0.00,0.00,VWS V14.01,2013-01-12 10:27:00,
2013-01-12 03:32:00,13.9,-3.5,29.93,NW,317,1.0,5.0,45,0.00,,SCT130,0.00,0.00,VWS V14.01,2013-01-12 10:32:00,
2013-01-12 03:37:00,13.9,-3.5,29.93,NW,317,0.0,4.0,45,0.00,,SCT130,0.00,0.00,VWS V14.01,2013-01-12 10:37:00,
2013-01-12 03:42:00,13.9,-3.5,29.93,NW,317,3.0,5.0,45,0.00,,SCT130,0.00,0.00,VWS V14.01,2013-01-12 10:42:00,
2013-01-12 03:47:00,13.9,-3.5,29.93,NW,317,0.0,3.0,45,0.00,,SCT130,0.00,0.00,VWS V14.01,2013-01-12 10:47:00,
2013-01-12 03:53:00,13.9,-3.5,29.93,NW,317,0.0,5.0,45,0.00,,SCT130,0.00,0.00,VWS V14.01,2013-01-12 10:53:00,
2013-01-12 03:58:00,13.8,-3.1,29.92,NW,317,0.0,3.0,46,0.00,,SCT130,0.00,0.00,VWS V14.01,2013-01-12 10:58:00,
2013-01-12 04:03:00,13.7,-3.7,29.92,NW,317,0.0,0.0,45,0.00,,SCT080,0.00,0.00,VWS V14.01,2013-01-12 11:03:00,
2013-01-12 04:08:00,13.6,-3.8,29.92,NW,317,0.0,0.0,45,0.00,,SCT080,0.00,0.00,VWS V14.01,2013-01-12 11:08:00,
2013-01-12 04:13:00,13.5,-3.9,29.92,NW,317,0.0,0.0,45,0.00,,SCT080,0.00,0.00,VWS V14.01,2013-01-12 11:13:00,
2013-01-12 04:18:00,13.4,-4.0,29.92,NW,317,0.0,0.0,45,0.00,,SCT080,0.00,0.00,VWS V14.01,2013-01-12 11:18:00,
2013-01-12 04:23:00,13.2,-4.2,29.92,NW,317,0.0,0.0,45,0.00,,SCT080,0.00,0.00,VWS V14.01,2013-01-12 11:23:00,
2013-01-12 04:28:00,13.0,-3.9,29.92,NW,317,0.0,0.0,46,0.00,,SCT080,0.00,0.00,VWS V14.01,2013-01-12 11:28:00,
2013-01-12 04:33:00,12.8,-3.6,29.92,NW,317,0.0,0.0,47,0.00,,SCT080,0.00,0.00,VWS V14.01,2013-01-12 11:33:00,
2013-01-12 04:38:00,12.6,-4.2,29.92,NW,317,0.0,0.0,46,0.00,,SCT080,0.00,0.00,VWS V14.01,2013-01-12 11:38:00,
2013-01-12 04:43:00,12.5,-4.3,29.92,NW,317,0.0,0.0,46,0.00,,SCT080,0.00,0.00,VWS V14.01,2013-01-12 11:43:00,
2013-01-12 04:48:00,12.3,-4.1,29.92,NW,317,0.0,0.0,47,0.00,,SCT080,0.00,0.00,VWS V14.01,2013-01-12 11:48:00,
2013-01-12 04:54:00,12.0,-3.9,29.92,NW,317,1.0,2.0,48,0.00,,SCT080,0.00,0.00,VWS V14.01,2013-01-12 11:54:00,
2013-01-12 04:59:00,11.8,-4.1,29.92,NW,317,1.0,2.0,48,0.00,,SCT080,0.00,0.00,VWS V14.01,2013-01-12 11:59:00,
2013-01-12 05:04:00,11.6,-3.8,29.92,NW,317,0.0,3.0,49,0.00,,SCT150,0.00,0.00,VWS V14.01,2013-01-12 12:04:00,
2013-01-12 05:09:00,11.5,-4.0,29.93,NW,317,2.0,2.0,49,0.00,,SCT150,0.00,0.00,VWS V14.01,2013-01-12 12:09:00,
2013-01-12 05:14:00,11.4,-4.0,29.93,NW,317,0.0,1.0,49,0.00,,SCT150,0.00,0.00,VWS V14.01,2013-01-12 12:14:00,
2013-01-12 05:19:00,11.3,-4.1,29.93,NW,317,0.0,2.0,49,0.00,,SCT150,0.00,0.00,VWS V14.01,2013-01-12 12:19:00,
2013-01-12 05:24:00,11.2,-3.8,29.93,NW,317,0.0,0.0,50,0.00,,SCT150,0.00,0.00,VWS V14.01,2013-01-12 12:24:00,
2013-01-12 05:29:00,11.1,-3.9,29.93,NW,317,1.0,1.0,50,0.00,,SCT150,0.00,0.00,VWS V14.01,2013-01-12 12:29:00,
2013-01-12 05:34:00,11.0,-4.0,29.93,NW,317,0.0,0.0,50,0.00,,SCT150,0.00,0.00,VWS V14.01,2013-01-12 12:34:00,
2013-01-12 05:39:00,10.9,-4.1,29.93,NW,317,0.0,0.0,50,0.00,,SCT150,0.00,0.00,VWS V14.01,2013-01-12 12:39:00,
2013-01-12 05:44:00,10.8,-3.8,29.94,NW,317,0.0,0.0,51,0.00,,SCT150,0.00,0.00,VWS V14.01,2013-01-12 12:44:00,
2013-01-12 05:49:00,10.7,-3.9,29.94,NW,317,0.0,0.0,51,0.00,,SCT150,0.00,0.00,VWS V14.01,2013-01-12 12:49:00,
2013-01-12 05:54:00,10.6,-4.0,29.94,NW,317,0.0,0.0,51,0.00,,SCT150,0.00,0.00,VWS V14.01,2013-01-12 12:54:00,
2013-01-12 06:00:00,10.5,-3.6,29.94,NW,317,0.0,0.0,52,0.00,,SCT150,0.00,0.00,VWS V14.01,2013-01-12 13:00:00,
2013-01-12 06:05:00,10.3,-4.2,29.95,NW,317,0.0,0.0,51,0.00,,SCT150,0.00,0.00,VWS V14.01,2013-01-12 13:05:00,
2013-01-12 06:10:00,10.1,-4.0,29.95,NW,317,0.0,0.0,52,0.00,,SCT150,0.00,0.00,VWS V14.01,2013-01-12 13:10:00,
2013-01-12 06:15:00,10.0,-3.7,29.95,NW,317,0.0,0.0,53,0.00,,SCT150,0.00,0.00,VWS V14.01,2013-01-12 13:15:00,
2013-01-12 06:20:00,9.8,-3.5,29.95,NW,317,0.0,0.0,54,0.00,,SCT150,0.00,0.00,VWS V14.01,2013-01-12 13:20:00,
2013-01-12 06:25:00,9.7,-3.2,29.95,NW,317,0.0,0.0,55,0.00,,SCT150,0.00,0.00,VWS V14.01,2013-01-12 13:25:00,
2013-01-12 06:30:00,9.5,-3.4,29.96,NW,317,0.0,0.0,55,0.00,,SCT250,0.00,0.00,VWS V14.01,2013-01-12 13:30:00,
2013-01-12 06:35:00,9.4,-3.5,29.96,NW,317,0.0,0.0,55,0.00,,SCT250,0.00,0.00,VWS V14.01,2013-01-12 13:35:00,
2013-01-12 06:40:00,9.2,-3.3,29.96,NW,317,0.0,0.0,56,0.00,,SCT250,0.00,0.00,VWS V14.01,2013-01-12 13:40:00,
2013-01-12 06:45:00,9.1,-3.0,29.96,NW,317,0.0,0.0,57,0.00,,SCT250,0.00,0.00,VWS V14.01,2013-01-12 13:45:00,
2013-01-12 06:50:00,9.0,-3.1,29.96,NW,317,0.0,0.0,57,0.00,,SCT250,0.00,0.00,VWS V14.01,2013-01-12 13:50:00,
2013-01-12 06:55:00,8.8,-3.3,29.97,NW,317,0.0,0.0,57,0.00,,SCT250,0.00,0.00,VWS V14.01,2013-01-12 13:55:00,
2013-01-12 07:00:00,8.7,-3.4,29.97,NW,317,0.0,0.0,57,0.00,,SCT250,0.00,0.00,VWS V14.01,2013-01-12 14:00:00,
2013-01-12 07:05:00,8.6,-3.5,29.97,NW,317,0.0,0.0,57,0.00,,SCT250,0.00,0.00,VWS V14.01,2013-01-12 14:05:00,
2013-01-12 07:10:00,8.3,-3.4,29.97,NW,317,0.0,0.0,58,0.00,,SCT250,0.00,0.00,VWS V14.01,2013-01-12 14:10:00,
2013-01-12 07:15:00,8.2,-3.2,29.97,NW,317,0.0,0.0,59,0.00,,SCT250,0.00,5.00,VWS V14.01,2013-01-12 14:15:00,
2013-01-12 07:20:00,8.1,-3.2,29.97,NW,317,0.0,0.0,59,0.00,,SCT250,0.00,5.00,VWS V14.01,2013-01-12 14:20:00,
2013-01-12 07:26:00,8.0,-3.3,29.97,NW,317,0.0,1.0,59,0.00,,SCT250,0.00,9.00,VWS V14.01,2013-01-12 14:26:00,
2013-01-12 07:31:00,7.9,-3.4,29.97,NW,317,0.0,0.0,59,0.00,,SCT250,0.00,9.00,VWS V14.01,2013-01-12 14:31:00,
2013-01-12 07:36:00,7.8,-3.5,29.97,NW,317,0.0,0.0,59,0.00,,SCT250,0.00,11.00,VWS V14.01,2013-01-12 14:36:00,
2013-01-12 07:41:00,7.8,-3.2,29.98,NW,317,0.0,0.0,60,0.00,,SCT250,0.00,12.00,VWS V14.01,2013-01-12 14:41:00,
2013-01-12 07:46:00,7.9,-3.1,29.98,NW,317,0.0,0.0,60,0.00,,SCT250,0.00,14.00,VWS V14.01,2013-01-12 14:46:00,
2013-01-12 07:51:00,8.0,-3.0,29.98,NW,317,0.0,0.0,60,0.00,,SCT250,0.00,18.00,VWS V14.01,2013-01-12 14:51:00,
2013-01-12 07:56:00,8.1,-2.9,29.98,NW,317,0.0,1.0,60,0.00,,SCT250,0.00,21.00,VWS V14.01,2013-01-12 14:56:00,
2013-01-12 08:01:00,8.3,-2.7,29.98,NW,317,0.0,0.0,60,0.00,,SCT200,0.00,26.00,VWS V14.01,2013-01-12 15:01:00,
2013-01-12 08:06:00,8.6,-2.8,29.98,NW,317,1.0,2.0,59,0.00,,SCT200,0.00,33.00,VWS V14.01,2013-01-12 15:06:00,
2013-01-12 08:11:00,9.0,-2.4,29.98,NW,317,0.0,1.0,59,0.00,,SCT200,0.00,33.00,VWS V14.01,2013-01-12 15:11:00,
2013-01-12 08:16:00,9.4,-2.0,29.98,NW,317,0.0,2.0,59,0.00,,SCT200,0.00,33.00,VWS V14.01,2013-01-12 15:16:00,
2013-01-12 08:22:00,9.7,-1.7,29.98,NW,317,0.0,2.0,59,0.00,,SCT200,0.00,28.00,VWS V14.01,2013-01-12 15:22:00,
2013-01-12 08:27:00,10.0,-1.8,29.98,NW,317,0.0,0.0,58,0.00,,SCT200,0.00,30.00,VWS V14.01,2013-01-12 15:27:00,
2013-01-12 08:32:00,10.3,-1.9,29.99,NW,317,0.0,0.0,57,0.00,,SCT200,0.00,25.00,VWS V14.01,2013-01-12 15:32:00,
2013-01-12 08:37:00,10.5,-1.7,29.99,NW,317,0.0,0.0,57,0.00,,SCT200,0.00,26.00,VWS V14.01,2013-01-12 15:37:00,
2013-01-12 08:42:00,10.9,-1.7,29.99,NW,317,0.0,2.0,56,0.00,,SCT200,0.00,28.00,VWS V14.01,2013-01-12 15:42:00,
2013-01-12 08:47:00,11.2,-1.8,29.99,NW,317,0.0,2.0,55,0.00,,SCT200,0.00,30.00,VWS V14.01,2013-01-12 15:47:00,
2013-01-12 08:52:00,11.6,-1.4,29.99,NW,317,0.0,0.0,55,0.00,,SCT200,0.00,30.00,VWS V14.01,2013-01-12 15:52:00,
2013-01-12 08:57:00,11.9,-1.5,29.99,NW,317,0.0,0.0,54,0.00,,SCT200,0.00,28.00,VWS V14.01,2013-01-12 15:57:00,
2013-01-12 09:02:00,12.2,-1.3,29.99,NW,317,2.0,2.0,54,0.00,,SCT200,0.00,40.00,VWS V14.01,2013-01-12 16:02:00,
2013-01-12 09:07:00,12.9,-1.0,29.99,NW,317,0.0,2.0,53,0.00,,SCT200,0.00,65.00,VWS V14.01,2013-01-12 16:07:00,
2013-01-12 09:12:00,13.4,-0.9,29.99,NW,317,0.0,1.0,52,0.00,,SCT200,0.00,32.00,VWS V14.01,2013-01-12 16:12:00,
2013-01-12 09:17:00,13.8,-1.0,29.99,NW,317,0.0,1.0,51,0.00,,SCT200,0.00,39.00,VWS V14.01,2013-01-12 16:17:00,
2013-01-12 09:22:00,14.1,-0.7,29.99,NW,317,0.0,1.0,51,0.00,,SCT200,0.00,114.00,VWS V14.01,2013-01-12 16:22:00,
2013-01-12 09:27:00,14.6,-0.6,29.99,NW,317,1.0,3.0,50,0.00,,SCT200,0.00,142.00,VWS V14.01,2013-01-12 16:27:00,
2013-01-12 09:33:00,15.4,-0.8,29.99,NW,317,0.0,3.0,48,0.00,,SCT200,0.00,128.00,VWS V14.01,2013-01-12 16:33:00,
2013-01-12 09:38:00,16.4,-0.3,29.99,NW,317,1.0,4.0,47,0.00,,SCT200,0.00,315.00,VWS V14.01,2013-01-12 16:38:00,
2013-01-12 09:43:00,18.2,0.0,29.99,NW,317,0.0,4.0,44,0.00,,SCT200,0.00,39.00,VWS V14.01,2013-01-12 16:43:00,
2013-01-12 09:48:00,18.5,0.2,29.99,NW,317,0.0,4.0,44,0.00,,SCT200,0.00,53.00,VWS V14.01,2013-01-12 16:48:00,
2013-01-12 09:53:00,18.6,-0.2,29.98,NW,317,0.0,2.0,43,0.00,,SCT200,0.00,37.00,VWS V14.01,2013-01-12 16:53:00,
2013-01-12 09:58:00,18.8,0.0,29.98,NW,317,3.0,4.0,43,0.00,,SCT200,0.00,35.00,VWS V14.01,2013-01-12 16:58:00,
2013-01-12 10:03:00,19.0,0.2,29.98,NW,317,2.0,3.0,43,0.00,,SCT080,0.00,47.00,VWS V14.01,2013-01-12 17:03:00,
2013-01-12 10:08:00,19.3,0.0,29.98,ENE,67,1.0,5.0,42,0.00,,SCT080,0.00,371.00,VWS V14.01,2013-01-12 17:08:00,
2013-01-12 10:13:00,20.5,0.6,29.98,NNE,26,3.0,4.0,41,0.00,,SCT080,0.00,501.00,VWS V14.01,2013-01-12 17:13:00,
2013-01-12 10:18:00,22.1,0.4,29.97,NNE,16,1.0,7.0,38,0.00,,SCT080,0.00,508.00,VWS V14.01,2013-01-12 17:18:00,
2013-01-12 10:23:00,22.6,0.3,29.97,NE,49,1.0,5.0,37,0.00,,SCT080,0.00,515.00,VWS V14.01,2013-01-12 17:23:00,
2013-01-12 10:29:00,23.4,0.4,29.97,North,9,5.0,6.0,36,0.00,,SCT080,0.00,536.00,VWS V14.01,2013-01-12 17:29:00,
2013-01-12 10:34:00,23.9,0.8,29.97,NNE,19,1.0,7.0,36,0.00,,SCT080,0.00,547.00,VWS V14.01,2013-01-12 17:34:00,
2013-01-12 10:39:00,24.5,0.2,29.97,NNE,19,0.0,4.0,34,0.00,,SCT080,0.00,526.00,VWS V14.01,2013-01-12 17:39:00,
2013-01-12 10:44:00,25.1,1.3,29.97,NNE,30,2.0,3.0,35,0.00,,SCT080,0.00,504.00,VWS V14.01,2013-01-12 17:44:00,
2013-01-12 10:49:00,25.4,0.3,29.97,NNE,31,3.0,3.0,33,0.00,,SCT080,0.00,506.00,VWS V14.01,2013-01-12 17:49:00,
2013-01-12 10:54:00,26.3,0.5,29.97,NNE,30,0.0,2.0,32,0.00,,SCT080,0.00,543.00,VWS V14.01,2013-01-12 17:54:00,
2013-01-12 10:59:00,26.8,0.9,29.96,ENE,69,0.0,1.0,32,0.00,,SCT080,0.00,573.00,VWS V14.01,2013-01-12 17:59:00,
2013-01-12 11:04:00,26.4,-0.1,29.96,ENE,69,0.0,4.0,31,0.00,,SCT080,0.00,584.00,VWS V14.01,2013-01-12 18:04:00,
2013-01-12 11:09:00,26.9,0.3,29.95,NNE,24,0.0,3.0,31,0.00,,SCT080,0.00,589.00,VWS V14.01,2013-01-12 18:09:00,
2013-01-12 11:14:00,27.0,-0.3,29.95,East,82,0.0,1.0,30,0.00,,SCT080,0.00,585.00,VWS V14.01,2013-01-12 18:14:00,
2013-01-12 11:19:00,27.4,0.1,29.95,East,101,2.0,2.0,30,0.00,,SCT080,0.00,598.00,VWS V14.01,2013-01-12 18:19:00,
2013-01-12 11:24:00,27.9,0.5,29.94,East,101,0.0,0.0,30,0.00,,SCT080,0.00,598.00,VWS V14.01,2013-01-12 18:24:00,
2013-01-12 11:29:00,28.5,0.3,29.94,East,101,0.0,2.0,29,0.00,,SCT080,0.00,608.00,VWS V14.01,2013-01-12 18:29:00,
2013-01-12 11:35:00,29.7,1.4,29.94,NE,46,1.0,2.0,29,0.00,,SCT080,0.00,617.00,VWS V14.01,2013-01-12 18:35:00,
2013-01-12 11:40:00,29.9,0.0,29.93,NE,46,0.0,0.0,27,0.00,,SCT080,0.00,564.00,VWS V14.01,2013-01-12 18:40:00,
2013-01-12 11:45:00,30.2,1.0,29.93,NE,46,0.0,3.0,28,0.00,,SCT080,0.00,601.00,VWS V14.01,2013-01-12 18:45:00,
2013-01-12 11:50:00,31.6,1.5,29.93,NNE,31,0.0,3.0,27,0.00,,SCT080,0.00,608.00,VWS V14.01,2013-01-12 18:50:00,
2013-01-12 11:55:00,31.5,-0.3,29.93,NNE,31,0.0,0.0,25,0.00,,SCT080,0.00,608.00,VWS V14.01,2013-01-12 18:55:00,
2013-01-12 12:00:00,31.6,0.7,29.92,NNE,28,0.0,2.0,26,0.00,,SCT080,0.00,610.00,VWS V14.01,2013-01-12 19:00:00,
2013-01-12 12:05:00,32.2,0.3,29.92,NNE,28,3.0,3.0,25,0.00,,SCT150,0.00,608.00,VWS V14.01,2013-01-12 19:05:00,
2013-01-12 12:10:00,32.5,-0.3,29.91,NNE,28,1.0,1.0,24,0.00,,SCT150,0.00,610.00,VWS V14.01,2013-01-12 19:10:00,
2013-01-12 12:15:00,31.8,-0.9,29.91,East,99,0.0,1.0,24,0.00,,SCT150,0.00,606.00,VWS V14.01,2013-01-12 19:15:00,
2013-01-12 12:21:00,32.2,1.2,29.91,East,99,0.0,0.0,26,0.00,,SCT150,0.00,606.00,VWS V14.01,2013-01-12 19:21:00,
2013-01-12 12:26:00,33.7,1.6,29.91,East,99,0.0,0.0,25,0.00,,SCT150,0.00,605.00,VWS V14.01,2013-01-12 19:26:00,
2013-01-12 12:31:00,34.2,0.3,29.90,SE,130,0.0,4.0,23,0.00,,SCT150,0.00,603.00,VWS V14.01,2013-01-12 19:31:00,
2013-01-12 12:36:00,35.0,0.0,29.90,SE,136,0.0,3.0,22,0.00,,SCT150,0.00,608.00,VWS V14.01,2013-01-12 19:36:00,
2013-01-12 12:41:00,35.0,0.0,29.90,South,172,0.0,2.0,22,0.00,,SCT150,0.00,629.00,VWS V14.01,2013-01-12 19:41:00,
2013-01-12 12:46:00,35.4,-0.6,29.90,South,173,2.0,5.0,21,0.00,,SCT150,0.00,392.00,VWS V14.01,2013-01-12 19:46:00,
2013-01-12 12:51:00,35.6,0.5,29.89,South,173,0.0,2.0,22,0.00,,SCT150,0.00,638.00,VWS V14.01,2013-01-12 19:51:00,
2013-01-12 12:56:00,34.8,-0.2,29.89,South,173,0.0,1.0,22,0.00,,SCT150,0.00,670.00,VWS V14.01,2013-01-12 19:56:00,
2013-01-12 13:01:00,37.1,0.8,29.89,South,173,0.0,3.0,21,0.00,,SCT150,0.00,633.00,VWS V14.01,2013-01-12 20:01:00,
2013-01-12 13:06:00,36.7,0.4,29.89,South,177,2.0,4.0,21,0.00,,SCT150,0.00,599.00,VWS V14.01,2013-01-12 20:06:00,
2013-01-12 13:11:00,36.4,0.2,29.89,SSW,197,2.0,7.0,21,0.00,,SCT150,0.00,703.00,VWS V14.01,2013-01-12 20:11:00,
2013-01-12 13:17:00,35.7,-0.4,29.89,SSW,198,0.0,7.0,21,0.00,,SCT150,0.00,629.00,VWS V14.01,2013-01-12 20:17:00,
2013-01-12 13:22:00,35.8,-0.3,29.89,SSE,168,1.0,3.0,21,0.00,,SCT150,0.00,682.00,VWS V14.01,2013-01-12 20:22:00,
2013-01-12 13:27:00,37.0,-1.4,29.89,South,178,0.0,8.0,19,0.00,,SCT150,0.00,677.00,VWS V14.01,2013-01-12 20:27:00,
2013-01-12 13:32:00,38.1,-0.5,29.89,WSW,256,3.0,6.0,19,0.00,,SCT150,0.00,619.00,VWS V14.01,2013-01-12 20:32:00,
2013-01-12 13:37:00,37.7,-3.2,29.89,South,187,5.0,8.0,17,0.00,,SCT150,0.00,610.00,VWS V14.01,2013-01-12 20:37:00,
2013-01-12 13:42:00,37.6,-3.3,29.89,West,265,5.0,7.0,17,0.00,,SCT150,0.00,592.00,VWS V14.01,2013-01-12 20:42:00,
2013-01-12 13:47:00,38.7,-5.0,29.89,WSW,256,5.0,14.0,15,0.00,,SCT150,0.00,564.00,VWS V14.01,2013-01-12 20:47:00,
2013-01-12 13:52:00,38.2,-5.4,29.89,West,263,6.0,9.0,15,0.00,,SCT150,0.00,339.00,VWS V14.01,2013-01-12 20:52:00,
2013-01-12 13:57:00,37.3,-4.8,29.89,West,263,3.0,8.0,16,0.00,,SCT150,0.00,334.00,VWS V14.01,2013-01-12 20:57:00,
2013-01-12 14:03:00,36.3,-4.3,29.89,SSW,199,6.0,7.0,17,0.00,,SCT150,0.00,571.00,VWS V14.01,2013-01-12 21:03:00,
2013-01-12 14:08:00,36.8,-3.9,29.89,WSW,249,6.0,10.0,17,0.00,,SCT150,0.00,422.00,VWS V14.01,2013-01-12 21:08:00,
2013-01-12 14:13:00,37.6,-3.3,29.89,West,260,4.0,12.0,17,0.00,,SCT150,0.00,568.00,VWS V14.01,2013-01-12 21:13:00,
2013-01-12 14:18:00,37.7,-3.2,29.89,NW,304,1.0,9.0,17,0.00,,SCT150,0.00,452.00,VWS V14.01,2013-01-12 21:18:00,
2013-01-12 14:23:00,37.6,-3.3,29.89,WNW,288,0.0,10.0,17,0.00,,SCT150,0.00,162.00,VWS V14.01,2013-01-12 21:23:00,
2013-01-12 14:28:00,37.3,-3.5,29.90,West,275,2.0,4.0,17,0.00,,SCT150,0.00,504.00,VWS V14.01,2013-01-12 21:28:00,
2013-01-12 14:33:00,37.0,-3.8,29.90,WSW,242,1.0,7.0,17,0.00,,SCT150,0.00,255.00,VWS V14.01,2013-01-12 21:33:00,
2013-01-12 14:38:00,36.2,-4.4,29.90,WSW,243,0.0,3.0,17,0.00,,SCT150,0.00,383.00,VWS V14.01,2013-01-12 21:38:00,
2013-01-12 14:43:00,36.9,-2.6,29.90,WSW,256,5.0,10.0,18,0.00,,SCT150,0.00,151.00,VWS V14.01,2013-01-12 21:43:00,
2013-01-12 14:48:00,36.7,-2.8,29.90,West,262,4.0,10.0,18,0.00,,SCT150,0.00,113.00,VWS V14.01,2013-01-12 21:48:00,
2013-01-12 14:54:00,36.2,-2.1,29.90,West,266,1.0,9.0,19,0.00,,SCT150,0.00,111.00,VWS V14.01,2013-01-12 21:54:00,
2013-01-12 14:59:00,35.5,-1.6,29.90,West,263,0.0,5.0,20,0.00,,SCT150,0.00,128.00,VWS V14.01,2013-01-12 21:59:00,
2013-01-12 15:04:00,34.9,-2.1,29.90,WNW,297,4.0,9.0,20,0.00,,SCT200,0.00,149.00,VWS V14.01,2013-01-12 22:04:00,
2013-01-12 15:09:00,34.6,-2.3,29.90,WNW,296,5.0,8.0,20,0.00,,SCT200,0.00,144.00,VWS V14.01,2013-01-12 22:09:00,
2013-01-12 15:14:00,34.3,-1.6,29.90,West,281,7.0,9.0,21,0.00,,SCT200,0.00,127.00,VWS V14.01,2013-01-12 22:14:00,
2013-01-12 15:19:00,34.1,0.2,29.91,NW,315,12.0,14.0,23,0.00,,SCT200,0.00,120.00,VWS V14.01,2013-01-12 22:19:00,
2013-01-12 15:24:00,33.6,2.4,29.91,WNW,294,7.0,11.0,26,0.00,,SCT200,0.00,114.00,VWS V14.01,2013-01-12 22:24:00,
2013-01-12 15:29:00,33.0,2.7,29.91,NW,305,12.0,13.0,27,0.00,,SCT200,0.00,121.00,VWS V14.01,2013-01-12 22:29:00,
2013-01-12 15:34:00,32.6,3.1,29.91,West,275,9.0,11.0,28,0.00,,SCT200,0.00,100.00,VWS V14.01,2013-01-12 22:34:00,
2013-01-12 15:39:00,32.3,2.9,29.91,West,275,9.0,9.0,28,0.00,,SCT200,0.00,79.00,VWS V14.01,2013-01-12 22:39:00,
2013-01-12 15:45:00,31.9,3.3,29.91,WNW,283,7.0,10.0,29,0.00,,SCT200,0.00,70.00,VWS V14.01,2013-01-12 22:45:00,
2013-01-12 15:50:00,31.7,2.3,29.91,West,267,8.0,8.0,28,0.00,,SCT200,0.00,58.00,VWS V14.01,2013-01-12 22:50:00,
2013-01-12 15:55:00,31.6,2.2,29.92,West,262,3.0,4.0,28,0.00,,SCT200,0.00,51.00,VWS V14.01,2013-01-12 22:55:00,
2013-01-12 16:00:00,31.5,2.2,29.92,WNW,301,3.0,5.0,28,0.00,,SCT200,0.00,56.00,VWS V14.01,2013-01-12 23:00:00,
2013-01-12 16:05:00,31.3,1.2,29.92,NNW,331,15.0,15.0,27,0.00,,BKN200,0.00,58.00,VWS V14.01,2013-01-12 23:05:00,
2013-01-12 16:10:00,31.0,1.7,29.92,NW,306,7.0,15.0,28,0.00,,BKN200,0.00,53.00,VWS V14.01,2013-01-12 23:10:00,
2013-01-12 16:15:00,30.8,1.5,29.92,WNW,283,1.0,9.0,28,0.00,,BKN200,0.00,49.00,VWS V14.01,2013-01-12 23:15:00,
2013-01-12 16:20:00,30.6,-0.2,29.93,WNW,303,9.0,10.0,26,0.00,,BKN200,0.00,46.00,VWS V14.01,2013-01-12 23:20:00,
2013-01-12 16:25:00,30.3,-1.3,29.93,WNW,300,8.0,17.0,25,0.00,,BKN200,0.00,42.00,VWS V14.01,2013-01-12 23:25:00,
2013-01-12 16:30:00,30.2,-0.6,29.93,West,279,9.0,11.0,26,0.00,,BKN200,0.00,40.00,VWS V14.01,2013-01-12 23:30:00,
2013-01-12 16:36:00,30.1,-0.6,29.93,WNW,284,7.0,12.0,26,0.00,,BKN200,0.00,33.00,VWS V14.01,2013-01-12 23:36:00,
2013-01-12 16:41:00,29.8,-0.1,29.93,WSW,258,5.0,9.0,27,0.00,,BKN200,0.00,28.00,VWS V14.01,2013-01-12 23:41:00,
2013-01-12 16:46:00,29.5,-1.1,29.93,WNW,290,2.0,8.0,26,0.00,,BKN200,0.00,21.00,VWS V14.01,2013-01-12 23:46:00,
2013-01-12 16:51:00,29.5,-2.0,29.93,WNW,302,6.0,10.0,25,0.00,,BKN200,0.00,18.00,VWS V14.01,2013-01-12 23:51:00,
2013-01-12 16:56:00,29.3,-3.0,29.93,WNW,297,9.0,12.0,24,0.00,,BKN200,0.00,14.00,VWS V14.01,2013-01-12 23:56:00,
2013-01-12 17:01:00,29.3,-3.9,29.94,NW,306,6.0,11.0,23,0.00,,BKN200,0.00,12.00,VWS V14.01,2013-01-13 00:01:00,
2013-01-12 17:06:00,29.3,-3.9,29.94,West,279,8.0,9.0,23,0.00,,BKN200,0.00,9.00,VWS V14.01,2013-01-13 00:06:00,
2013-01-12 17:11:00,29.2,-2.2,29.94,West,277,1.0,8.0,25,0.00,,BKN200,0.00,5.00,VWS V14.01,2013-01-13 00:11:00,
2013-01-12 17:16:00,29.0,-1.6,29.94,NW,311,6.0,10.0,26,0.00,,BKN200,0.00,0.00,VWS V14.01,2013-01-13 00:16:00,
2013-01-12 17:21:00,28.8,-2.6,29.94,WNW,300,7.0,11.0,25,0.00,,BKN200,0.00,0.00,VWS V14.01,2013-01-13 00:21:00,
2013-01-12 17:26:00,28.6,-3.6,29.94,WNW,298,7.0,10.0,24,0.00,,BKN200,0.00,0.00,VWS V14.01,2013-01-13 00:26:00,
2013-01-12 17:31:00,28.5,-2.8,29.94,NNW,327,4.0,10.0,25,0.00,,BKN110,0.00,0.00,VWS V14.01,2013-01-13 00:31:00,
2013-01-12 17:36:00,28.3,-4.8,29.94,NW,311,9.0,16.0,23,0.00,,BKN110,0.00,0.00,VWS V14.01,2013-01-13 00:36:00,
2013-01-12 17:41:00,28.1,-4.0,29.94,WNW,302,5.0,14.0,24,0.00,,BKN110,0.00,0.00,VWS V14.01,2013-01-13 00:41:00,
2013-01-12 17:46:00,28.0,-4.1,29.94,NW,312,0.0,11.0,24,0.00,,BKN110,0.00,0.00,VWS V14.01,2013-01-13 00:46:00,
2013-01-12 17:51:00,27.8,-6.1,29.95,WNW,300,6.0,10.0,22,0.00,,BKN110,0.00,0.00,VWS V14.01,2013-01-13 00:51:00,
2013-01-12 17:56:00,27.8,-7.1,29.95,NNW,332,5.0,13.0,21,0.00,,BKN110,0.00,0.00,VWS V14.01,2013-01-13 00:56:00,
2013-01-12 18:02:00,27.7,-7.1,29.95,NNW,344,4.0,8.0,21,0.00,,BKN110,0.00,0.00,VWS V14.01,2013-01-13 01:02:00,
2013-01-12 18:07:00,27.6,-7.2,29.95,NNW,339,3.0,8.0,21,0.00,,BKN110,0.00,0.00,VWS V14.01,2013-01-13 01:07:00,
2013-01-12 18:12:00,27.5,-7.3,29.95,NNW,331,2.0,9.0,21,0.00,,BKN110,0.00,0.00,VWS V14.01,2013-01-13 01:12:00,
2013-01-12 18:17:00,27.4,-8.4,29.95,NNW,340,4.0,8.0,20,0.00,,BKN110,0.00,0.00,VWS V14.01,2013-01-13 01:17:00,
2013-01-12 18:22:00,27.3,-8.5,29.96,NW,311,5.0,7.0,20,0.00,,BKN110,0.00,0.00,VWS V14.01,2013-01-13 01:22:00,
2013-01-12 18:27:00,27.2,-9.6,29.96,NNW,328,1.0,8.0,19,0.00,,BKN110,0.00,0.00,VWS V14.01,2013-01-13 01:27:00,
2013-01-12 18:32:00,27.0,-9.8,29.96,NW,321,4.0,6.0,19,0.00,,BKN110,0.00,0.00,VWS V14.01,2013-01-13 01:32:00,
2013-01-12 18:37:00,26.8,-9.9,29.96,NNW,332,4.0,9.0,19,0.00,,BKN110,0.00,0.00,VWS V14.01,2013-01-13 01:37:00,
2013-01-12 18:42:00,26.7,-10.0,29.96,NW,321,7.0,9.0,19,0.00,,BKN110,0.00,0.00,VWS V14.01,2013-01-13 01:42:00,
2013-01-12 18:47:00,26.4,-10.3,29.96,NW,311,3.0,8.0,19,0.00,,BKN110,0.00,0.00,VWS V14.01,2013-01-13 01:47:00,
2013-01-12 18:52:00,26.2,-9.4,29.96,NW,318,7.0,9.0,20,0.00,,BKN110,0.00,0.00,VWS V14.01,2013-01-13 01:52:00,
2013-01-12 18:57:00,26.0,-9.6,29.97,NW,313,5.0,9.0,20,0.00,,BKN110,0.00,0.00,VWS V14.01,2013-01-13 01:57:00,
2013-01-12 19:02:00,25.7,-8.8,29.97,NW,321,4.0,9.0,21,0.00,,BKN100,0.00,0.00,VWS V14.01,2013-01-13 02:02:00,
2013-01-12 19:07:00,25.5,-9.0,29.97,NW,316,1.0,5.0,21,0.00,,BKN100,0.00,0.00,VWS V14.01,2013-01-13 02:07:00,
2013-01-12 19:12:00,25.3,-9.2,29.97,NW,315,0.0,6.0,21,0.00,,BKN100,0.00,0.00,VWS V14.01,2013-01-13 02:12:00,
2013-01-12 19:17:00,24.9,-9.5,29.97,NW,308,3.0,7.0,21,0.00,,BKN100,0.00,0.00,VWS V14.01,2013-01-13 02:17:00,
2013-01-12 19:22:00,24.6,-8.8,29.98,NW,310,2.0,6.0,22,0.00,,BKN100,0.00,0.00,VWS V14.01,2013-01-13 02:22:00,
2013-01-12 19:28:00,24.2,-9.1,29.98,NW,314,0.0,6.0,22,0.00,,BKN100,0.00,0.00,VWS V14.01,2013-01-13 02:28:00,
2013-01-12 19:33:00,23.9,-9.4,29.98,NW,315,0.0,6.0,22,0.00,,BKN100,0.00,0.00,VWS V14.01,2013-01-13 02:33:00,
2013-01-12 19:38:00,23.6,-8.8,29.98,NW,314,2.0,5.0,23,0.00,,BKN100,0.00,0.00,VWS V14.01,2013-01-13 02:38:00,
2013-01-12 19:43:00,23.3,-9.0,29.98,NW,315,3.0,6.0,23,0.00,,BKN100,0.00,0.00,VWS V14.01,2013-01-13 02:43:00,
2013-01-12 19:48:00,23.0,-8.4,29.98,NW,315,2.0,4.0,24,0.00,,BKN100,0.00,0.00,VWS V14.01,2013-01-13 02:48:00,
2013-01-12 19:53:00,22.7,-8.7,29.98,NW,315,0.0,5.0,24,0.00,,BKN100,0.00,0.00,VWS V14.01,2013-01-13 02:53:00,
2013-01-12 19:58:00,22.5,-8.8,29.98,NW,315,4.0,4.0,24,0.00,,BKN100,0.00,0.00,VWS V14.01,2013-01-13 02:58:00,
2013-01-12 20:03:00,22.2,-9.1,29.98,NW,315,1.0,3.0,24,0.00,,BKN130,0.00,0.00,VWS V14.01,2013-01-13 03:03:00,
2013-01-12 20:08:00,21.9,-8.5,29.98,NW,315,0.0,3.0,25,0.00,,BKN130,0.00,0.00,VWS V14.01,2013-01-13 03:08:00,
2013-01-12 20:13:00,21.7,-8.7,29.98,NW,315,0.0,2.0,25,0.00,,BKN130,0.00,0.00,VWS V14.01,2013-01-13 03:13:00,
2013-01-12 20:18:00,21.3,-9.0,29.98,NW,314,2.0,2.0,25,0.00,,BKN130,0.00,0.00,VWS V14.01,2013-01-13 03:18:00,
2013-01-12 20:23:00,21.0,-9.3,29.98,NW,314,0.0,3.0,25,0.00,,BKN130,0.00,0.00,VWS V14.01,2013-01-13 03:23:00,
2013-01-12 20:28:00,20.6,-9.6,29.98,NW,313,2.0,4.0,25,0.00,,BKN130,0.00,0.00,VWS V14.01,2013-01-13 03:28:00,
2013-01-12 20:33:00,20.3,-9.1,29.99,NW,312,2.0,6.0,26,0.00,,BKN130,0.00,0.00,VWS V14.01,2013-01-13 03:33:00,
2013-01-12 20:39:00,20.1,-9.3,29.99,NW,310,0.0,5.0,26,0.00,,BKN130,0.00,0.00,VWS V14.01,2013-01-13 03:39:00,
2013-01-12 20:44:00,19.8,-8.8,29.99,NW,309,3.0,4.0,27,0.00,,BKN130,0.00,0.00,VWS V14.01,2013-01-13 03:44:00,
2013-01-12 20:49:00,19.6,-8.2,29.99,WNW,296,1.0,7.0,28,0.00,,BKN130,0.00,0.00,VWS V14.01,2013-01-13 03:49:00,
2013-01-12 20:54:00,19.4,-8.4,29.99,WNW,295,1.0,1.0,28,0.00,,BKN130,0.00,0.00,VWS V14.01,2013-01-13 03:54:00,
2013-01-12 20:59:00,19.1,-8.6,29.99,WNW,294,0.0,2.0,28,0.00,,BKN130,0.00,0.00,VWS V14.01,2013-01-13 03:59:00,
2013-01-12 21:04:00,19.0,-8.7,29.99,WNW,294,2.0,5.0,28,0.00,,BKN100,0.00,0.00,VWS V14.01,2013-01-13 04:04:00,
2013-01-12 21:09:00,18.8,-8.2,30.00,WNW,294,4.0,5.0,29,0.00,,BKN100,0.00,0.00,VWS V14.01,2013-01-13 04:09:00,
2013-01-12 21:14:00,18.6,-8.4,29.99,WNW,293,3.0,5.0,29,0.00,,BKN100,0.00,0.00,VWS V14.01,2013-01-13 04:14:00,
2013-01-12 21:19:00,18.5,-7.8,29.99,WNW,292,2.0,2.0,30,0.00,,BKN100,0.00,0.00,VWS V14.01,2013-01-13 04:19:00,
2013-01-12 21:24:00,18.3,-7.3,29.99,WNW,292,1.0,4.0,31,0.00,,BKN100,0.00,0.00,VWS V14.01,2013-01-13 04:24:00,
2013-01-12 21:29:00,18.2,-7.3,29.99,WNW,292,2.0,2.0,31,0.00,,BKN100,0.00,0.00,VWS V14.01,2013-01-13 04:29:00,
2013-01-12 21:34:00,18.0,-6.9,29.99,WNW,292,0.0,2.0,32,0.00,,BKN100,0.00,0.00,VWS V14.01,2013-01-13 04:34:00,
2013-01-12 21:39:00,17.8,-7.1,29.99,WNW,292,0.0,1.0,32,0.00,,BKN100,0.00,0.00,VWS V14.01,2013-01-13 04:39:00,
2013-01-12 21:45:00,17.7,-6.5,30.00,WNW,292,0.0,2.0,33,0.00,,BKN100,0.00,0.00,VWS V14.01,2013-01-13 04:45:00,
2013-01-12 21:50:00,17.5,-6.7,30.00,WNW,292,0.0,0.0,33,0.00,,BKN100,0.00,0.00,VWS V14.01,2013-01-13 04:50:00,
2013-01-12 21:55:00,17.3,-5.7,30.00,WNW,292,0.0,3.0,35,0.00,,BKN100,0.00,0.00,VWS V14.01,2013-01-13 04:55:00,
2013-01-12 22:00:00,17.1,-4.7,30.00,WNW,292,1.0,3.0,37,0.00,,FEW100,0.00,0.00,VWS V14.01,2013-01-13 05:00:00,
2013-01-12 22:02:00,17.1,-4.7,30.00,WNW,292,2.0,4.0,37,0.00,,FEW100,0.00,0.00,VWS V14.01,2013-01-13 05:02:00,
2013-01-12 22:03:00,17.0,-4.2,30.00,WNW,292,2.0,5.0,38,0.00,,FEW100,0.00,0.00,VWS V14.01,2013-01-13 05:03:00,
2013-01-12 22:08:00,16.9,-3.8,30.00,WNW,292,2.0,4.0,39,0.00,,FEW100,0.00,0.00,VWS V14.01,2013-01-13 05:08:00,
2013-01-12 22:13:00,16.8,-3.3,30.00,WNW,292,2.0,5.0,40,0.00,,FEW100,0.00,0.00,VWS V14.01,2013-01-13 05:13:00,
2013-01-12 22:18:00,16.7,-2.9,30.00,WNW,292,1.0,4.0,41,0.00,,FEW100,0.00,0.00,VWS V14.01,2013-01-13 05:18:00,
2013-01-12 22:23:00,16.7,-2.9,30.01,WNW,291,0.0,7.0,41,0.00,,FEW100,0.00,0.00,VWS V14.01,2013-01-13 05:23:00,
2013-01-12 22:28:00,16.8,-2.3,30.01,WNW,291,1.0,3.0,42,0.00,,FEW100,0.00,0.00,VWS V14.01,2013-01-13 05:28:00,
2013-01-12 22:33:00,16.7,-2.4,30.01,WNW,291,1.0,4.0,42,0.00,,FEW100,0.00,0.00,VWS V14.01,2013-01-13 05:33:00,
2013-01-12 22:38:00,16.8,-1.8,30.01,WNW,291,0.0,0.0,43,0.00,,FEW100,0.00,0.00,VWS V14.01,2013-01-13 05:38:00,
2013-01-12 22:43:00,16.6,-4.0,30.01,WNW,291,0.0,0.0,39,0.00,,FEW100,0.00,0.00,VWS V14.01,2013-01-13 05:43:00,
2013-01-12 22:48:00,16.4,-4.2,30.02,WNW,291,0.0,0.0,39,0.00,,FEW100,0.00,0.00,VWS V14.01,2013-01-13 05:48:00,
2013-01-12 22:53:00,16.2,-4.4,30.02,WNW,291,0.0,0.0,39,0.00,,FEW100,0.00,0.00,VWS V14.01,2013-01-13 05:53:00,
2013-01-12 22:59:00,16.2,-4.4,30.02,WNW,291,0.0,0.0,39,0.00,,FEW100,0.00,0.00,VWS V14.01,2013-01-13 05:59:00,
2013-01-12 23:04:00,16.0,-2.0,30.02,WNW,291,0.0,4.0,44,0.00,,FEW100,0.00,0.00,VWS V14.01,2013-01-13 06:04:00,
2013-01-12 23:09:00,16.0,-2.0,30.02,WNW,291,0.0,5.0,44,0.00,,FEW100,0.00,0.00,VWS V14.01,2013-01-13 06:09:00,
2013-01-12 23:14:00,16.0,-2.0,30.02,WNW,291,0.0,1.0,44,0.00,,FEW100,0.00,0.00,VWS V14.01,2013-01-13 06:14:00,
2013-01-12 23:19:00,15.9,-2.2,30.02,WNW,291,0.0,0.0,44,0.00,,FEW100,0.00,0.00,VWS V14.01,2013-01-13 06:19:00,
2013-01-12 23:24:00,15.9,-2.2,30.03,WNW,291,0.0,0.0,44,0.00,,FEW100,0.00,0.00,VWS V14.01,2013-01-13 06:24:00,
2013-01-12 23:29:00,15.8,-2.7,30.02,WNW,291,0.0,1.0,43,0.00,,FEW100,0.00,0.00,VWS V14.01,2013-01-13 06:29:00,
2013-01-12 23:34:00,15.7,-2.8,30.03,WNW,291,0.0,0.0,43,0.00,,FEW100,0.00,0.00,VWS V14.01,2013-01-13 06:34:00,
2013-01-12 23:39:00,15.5,-3.0,30.03,WNW,291,0.0,0.0,43,0.00,,FEW100,0.00,0.00,VWS V14.01,2013-01-13 06:39:00,
2013-01-12 23:44:00,15.3,-2.7,30.03,WNW,291,3.0,4.0,44,0.00,,FEW100,0.00,0.00,VWS V14.01,2013-01-13 06:44:00,
2013-01-12 23:49:00,15.2,-2.8,30.03,WNW,291,0.0,0.0,44,0.00,,FEW100,0.00,0.00,VWS V14.01,2013-01-13 06:49:00,
2013-01-12 23:54:00,15.1,-2.4,30.03,WNW,291,3.0,4.0,45,0.00,,FEW100,0.00,0.00,VWS V14.01,2013-01-13 06:54:00,
2013-01-12 23:59:00,14.9,-2.6,30.03,WNW,291,0.0,1.0,45,0.00,,FEW100,0.00,0.00,VWS V14.01,2013-01-13 06:59:00,